| time (UTC) | temp F | wind direction | speed knots | gust knots | rain 1hr in | rain 24hr in | rain mn in | humidity % | barometer mb |
| 20260506113856 | 58 | 214 | 12.2 | 25.2 | 0.00 | 0.00 | 0.00 | 88 | 999.9 |
| 20260506112956 | 58 | 222 | 12.2 | 30.4 | 0.00 | 0.00 | 0.00 | 88 | 999.8 |
| 20260506112056 | 58 | 212 | 12.2 | 25.2 | 0.00 | 0.00 | 0.00 | 89 | 999.9 |
| 20260506111156 | 57 | 207 | 10.4 | 22.6 | 0.00 | 0.00 | 0.00 | 89 | 1000.0 |
| 20260506110256 | 57 | 218 | 11.3 | 23.5 | 0.00 | 0.00 | 0.00 | 91 | 1000.0 |
| 20260506105356 | 57 | 208 | 11.3 | 23.5 | 0.00 | 0.00 | 0.00 | 91 | 999.9 |
| 20260506103556 | 57 | 213 | 11.3 | 26.9 | 0.00 | 0.00 | 0.00 | 91 | 999.8 |
| 20260506102656 | 56 | 212 | 9.6 | 26.9 | 0.00 | 0.00 | 0.00 | 92 | 1000.0 |
| 20260506101756 | 56 | 212 | 10.4 | 25.2 | 0.00 | 0.00 | 0.00 | 92 | 999.9 |
| 20260506100856 | 56 | 213 | 10.4 | 21.7 | 0.00 | 0.00 | 0.00 | 92 | 999.9 |
| 20260506095956 | 56 | 210 | 10.4 | 20.9 | 0.00 | 0.00 | 0.00 | 92 | 999.8 |
| 20260506095055 | 56 | 209 | 10.4 | 20.0 | 0.00 | 0.00 | 0.00 | 92 | 999.7 |
| 20260506094155 | 56 | 216 | 10.4 | 20.0 | 0.00 | 0.00 | 0.00 | 92 | 999.7 |
| 20260506093256 | 56 | 212 | 11.3 | 24.3 | 0.00 | 0.00 | 0.00 | 92 | 999.7 |
| 20260506092355 | 56 | 213 | 11.3 | 23.5 | 0.00 | 0.00 | 0.00 | 92 | 999.6 |
| 20260506091455 | 56 | 210 | 9.6 | 20.0 | 0.00 | 0.00 | 0.00 | 92 | 999.8 |
| 20260506090555 | 56 | 214 | 11.3 | 26.1 | 0.00 | 0.00 | 0.00 | 91 | 999.8 |
| 20260506085655 | 56 | 217 | 10.4 | 23.5 | 0.00 | 0.00 | 0.00 | 91 | 999.9 |
| 20260506083855 | 56 | 212 | 10.4 | 23.5 | 0.00 | 0.00 | 0.00 | 91 | 1000.1 |
| 20260506082955 | 56 | 205 | 10.4 | 26.1 | 0.00 | 0.00 | 0.00 | 90 | 1000.1 |
| 20260506082055 | 56 | 201 | 11.3 | 24.3 | 0.00 | 0.00 | 0.00 | 90 | 1000.1 |
| 20260506081155 | 56 | 213 | 12.2 | 24.3 | 0.00 | 0.00 | 0.00 | 90 | 1000.0 |
| 20260506080255 | 56 | 219 | 11.3 | 24.3 | 0.00 | 0.00 | 0.00 | 90 | 1000.1 |
| 20260506072655 | 57 | 213 | 11.3 | 23.5 | 0.00 | 0.00 | 0.00 | 89 | 1000.3 |
| 20260506071755 | 57 | 215 | 13.0 | 25.2 | 0.00 | 0.00 | 0.00 | 88 | 1000.2 |
| 20260506070855 | 57 | 215 | 13.0 | 26.1 | 0.00 | 0.00 | 0.00 | 88 | 1000.3 |
| 20260506062355 | 58 | 216 | 13.0 | 27.8 | 0.00 | 0.00 | 0.00 | 86 | 1000.2 |
| 20260506061455 | 58 | 219 | 15.6 | 27.8 | 0.00 | 0.00 | 0.00 | 86 | 1000.2 |
| 20260506051154 | 58 | 219 | 14.8 | 26.9 | 0.00 | 0.00 | 0.00 | 84 | 1000.6 |
| 20260506050255 | 59 | 222 | 15.6 | 31.3 | 0.00 | 0.00 | 0.00 | 84 | 1000.6 |
| 20260506044455 | 59 | 220 | 18.2 | 33.0 | 0.00 | 0.00 | 0.00 | 83 | 1000.4 |
| 20260506043554 | 60 | 219 | 19.1 | 31.3 | 0.00 | 0.00 | 0.00 | 82 | 1000.4 |
| 20260506042654 | 59 | 221 | 18.2 | 28.7 | 0.00 | 0.00 | 0.00 | 82 | 1000.5 |
| 20260506041755 | 59 | 218 | 15.6 | 28.7 | 0.00 | 0.00 | 0.00 | 82 | 1000.5 |
| 20260506040854 | 59 | 220 | 15.6 | 36.5 | 0.00 | 0.00 | 0.00 | 82 | 1000.6 |
| 20260506035054 | 59 | 221 | 15.6 | 32.2 | 0.00 | 0.00 | 0.00 | 82 | 1000.4 |
| 20260506034154 | 59 | 220 | 15.6 | 32.2 | 0.00 | 0.00 | 0.00 | 81 | 1000.5 |
| 20260506033254 | 59 | 215 | 15.6 | 38.2 | 0.00 | 0.00 | 0.00 | 82 | 1000.5 |
| 20260506032354 | 59 | 211 | 16.5 | 33.9 | 0.00 | 0.00 | 0.00 | 81 | 1000.5 |
| 20260506031454 | 60 | 222 | 17.4 | 40.0 | 0.00 | 0.00 | 0.00 | 81 | 1000.3 |
| 20260506025654 | 60 | 220 | 15.6 | 33.9 | 0.00 | 0.00 | 0.00 | 81 | 1000.7 |
| 20260506024754 | 60 | 214 | 15.6 | 32.2 | 0.00 | 0.00 | 0.00 | 81 | 1000.5 |
| 20260506022954 | 60 | 216 | 16.5 | 30.4 | 0.00 | 0.00 | 0.00 | 80 | 1000.5 |
| 20260506022054 | 60 | 217 | 16.5 | 34.8 | 0.00 | 0.00 | 0.00 | 80 | 1000.4 |
| 20260506021154 | 60 | 216 | 16.5 | 31.3 | 0.00 | 0.00 | 0.00 | 79 | 1000.7 |
| 20260506020254 | 60 | 218 | 16.5 | 33.9 | 0.00 | 0.00 | 0.00 | 78 | 1000.6 |
| 20260506015354 | 61 | 219 | 15.6 | 36.5 | 0.00 | 0.00 | 0.00 | 77 | 1000.4 |
| 20260506014454 | 62 | 222 | 17.4 | 33.0 | 0.00 | 0.00 | 0.00 | 75 | 1000.5 |
| 20260506013554 | 62 | 223 | 19.1 | 37.4 | 0.00 | 0.00 | 0.00 | 73 | 1000.2 |
| 20260506012654 | 63 | 221 | 19.1 | 40.0 | 0.00 | 0.00 | 0.00 | 72 | 1000.0 |
| 20260506010854 | 63 | 222 | 18.2 | 36.5 | 0.00 | 0.00 | 0.00 | 71 | 999.9 |
| 20260506005054 | 62 | 217 | 18.2 | 33.9 | 0.00 | 0.00 | 0.00 | 73 | 999.7 |
| 20260506004154 | 62 | 217 | 17.4 | 33.9 | 0.00 | 0.00 | 0.00 | 74 | 999.4 |
| 20260506002354 | 62 | 211 | 15.6 | 32.2 | 0.00 | 0.00 | 0.00 | 74 | 999.4 |
| 20260506001454 | 62 | 220 | 18.2 | 37.4 | 0.00 | 0.00 | 0.00 | 73 | 999.6 |
| 20260506000553 | 62 | 226 | 17.4 | 37.4 | 0.00 | 0.00 | 0.00 | 73 | 999.2 |
| 20260505235653 | 62 | 220 | 20.0 | 36.5 | 0.00 | 0.00 | 0.00 | 73 | 999.1 |
| 20260505233853 | 62 | 220 | 13.9 | 31.3 | 0.00 | 0.00 | 0.00 | 73 | 998.9 |
| 20260505232954 | 62 | 214 | 14.8 | 30.4 | 0.00 | 0.00 | 0.00 | 73 | 998.9 |
| 20260505232053 | 62 | 213 | 13.9 | 26.9 | 0.00 | 0.00 | 0.00 | 72 | 998.7 |
| 20260505231153 | 62 | 219 | 13.9 | 28.7 | 0.00 | 0.00 | 0.00 | 72 | 998.7 |
| 20260505230253 | 63 | 218 | 14.8 | 30.4 | 0.00 | 0.00 | 0.00 | 71 | 998.6 |
| 20260505222653 | 64 | 213 | 13.9 | 30.4 | 0.00 | 0.00 | 0.00 | 69 | 998.4 |
| 20260505221753 | 64 | 220 | 14.8 | 26.9 | 0.00 | 0.00 | 0.00 | 69 | 998.3 |
| 20260505220853 | 64 | 217 | 13.9 | 30.4 | 0.00 | 0.00 | 0.00 | 68 | 998.3 |
| 20260505215953 | 65 | 218 | 14.8 | 33.0 | 0.00 | 0.00 | 0.00 | 67 | 998.3 |
| 20260505215053 | 65 | 212 | 13.9 | 26.1 | 0.00 | 0.00 | 0.00 | 67 | 998.0 |
| 20260505214153 | 65 | 218 | 14.8 | 30.4 | 0.00 | 0.00 | 0.00 | 67 | 998.0 |
| 20260505213253 | 65 | 212 | 12.2 | 26.9 | 0.00 | 0.00 | 0.00 | 67 | 997.9 |
| 20260505212353 | 65 | 211 | 11.3 | 23.5 | 0.00 | 0.00 | 0.00 | 68 | 998.1 |
| 20260505211453 | 65 | 210 | 13.0 | 28.7 | 0.00 | 0.00 | 0.00 | 67 | 998.0 |
| 20260505205653 | 66 | 207 | 10.4 | 24.3 | 0.00 | 0.00 | 0.00 | 67 | 998.0 |
| 20260505203853 | 65 | 198 | 9.6 | 20.9 | 0.00 | 0.00 | 0.00 | 69 | 997.9 |
| 20260505202952 | 65 | 196 | 9.6 | 18.2 | 0.00 | 0.00 | 0.00 | 69 | 998.0 |
| 20260505202053 | 65 | 190 | 9.6 | 20.9 | 0.00 | 0.00 | 0.00 | 69 | 998.2 |
| 20260505200252 | 66 | 194 | 9.6 | 17.4 | 0.00 | 0.00 | 0.00 | 68 | 998.4 |
| 20260505195352 | 65 | 196 | 10.4 | 22.6 | 0.00 | 0.00 | 0.00 | 68 | 998.4 |
| 20260505194452 | 65 | 189 | 10.4 | 20.0 | 0.00 | 0.00 | 0.00 | 68 | 998.3 |
| 20260505193552 | 65 | 200 | 11.3 | 26.1 | 0.00 | 0.00 | 0.00 | 68 | 998.5 |
| 20260505192652 | 65 | 186 | 9.6 | 19.1 | 0.00 | 0.00 | 0.00 | 68 | 998.7 |
| 20260505191752 | 65 | 198 | 10.4 | 21.7 | 0.00 | 0.00 | 0.00 | 69 | 998.8 |
| 20260505190852 | 65 | 200 | 10.4 | 22.6 | 0.00 | 0.00 | 0.00 | 68 | 999.2 |
| 20260505185952 | 66 | 192 | 9.6 | 19.1 | 0.00 | 0.00 | 0.00 | 67 | 999.2 |
| 20260505185052 | 66 | 177 | 9.6 | 19.1 | 0.00 | 0.00 | 0.00 | 68 | 999.3 |
| 20260505184153 | 66 | 218 | 9.6 | 19.1 | 0.00 | 0.00 | 0.00 | 67 | 999.2 |
| 20260505183252 | 66 | 189 | 9.6 | 18.2 | 0.00 | 0.00 | 0.00 | 67 | 999.3 |
| 20260505182352 | 66 | 163 | 9.6 | 17.4 | 0.00 | 0.00 | 0.00 | 69 | 999.4 |
| 20260505181452 | 66 | 175 | 7.8 | 16.5 | 0.00 | 0.00 | 0.00 | 68 | 999.6 |
| 20260505175652 | 66 | 165 | 7.0 | 17.4 | 0.00 | 0.00 | 0.00 | 69 | 999.8 |
| 20260505174752 | 67 | 158 | 7.0 | 15.6 | 0.00 | 0.00 | 0.00 | 68 | 999.7 |
| 20260505173852 | 66 | 167 | 7.8 | 16.5 | 0.00 | 0.00 | 0.00 | 68 | 999.7 |
| 20260505172952 | 67 | 198 | 7.0 | 15.6 | 0.00 | 0.00 | 0.00 | 68 | 999.7 |
| 20260505172052 | 66 | 184 | 7.8 | 17.4 | 0.00 | 0.00 | 0.00 | 68 | 999.8 |
| 20260505170252 | 67 | 176 | 7.8 | 17.4 | 0.00 | 0.00 | 0.00 | 67 | 999.7 |
| 20260505165352 | 66 | 194 | 7.8 | 16.5 | 0.00 | 0.00 | 0.00 | 67 | 999.9 |
| 20260505164452 | 67 | 183 | 7.0 | 15.6 | 0.00 | 0.00 | 0.00 | 66 | 999.9 |
| 20260505163552 | 68 | 187 | 7.0 | 14.8 | 0.00 | 0.00 | 0.00 | 66 | 1000.2 |
| 20260505162652 | 68 | 172 | 7.0 | 16.5 | 0.00 | 0.00 | 0.00 | 65 | 1000.2 |
| 20260505161752 | 69 | 202 | 6.1 | 14.8 | 0.00 | 0.00 | 0.00 | 65 | 1000.3 |
| 20260505160852 | 68 | 207 | 7.0 | 17.4 | 0.00 | 0.00 | 0.00 | 65 | 1000.4 |
| 20260505153252 | 66 | 187 | 6.1 | 15.6 | 0.00 | 0.00 | 0.00 | 69 | 1000.6 |
| 20260505150551 | 65 | 215 | 8.7 | 20.0 | 0.00 | 0.00 | 0.00 | 70 | 1001.2 |
| 20260505140251 | 63 | 219 | 7.0 | 15.6 | 0.00 | 0.00 | 0.00 | 74 | 1000.8 |
| 20260505124151 | 60 | 181 | 4.3 | 9.6 | 0.00 | 0.00 | 0.00 | 79 | 1000.8 |
| 20260505123251 | 60 | 199 | 5.2 | 9.6 | 0.00 | 0.00 | 0.00 | 80 | 1001.0 |
| 20260505122351 | 59 | 219 | 6.1 | 12.2 | 0.00 | 0.00 | 0.00 | 81 | 1000.9 |
| 20260505121451 | 59 | 217 | 7.0 | 14.8 | 0.00 | 0.00 | 0.00 | 81 | 1001.0 |
| 20260505120551 | 58 | 222 | 9.6 | 16.5 | 0.00 | 0.00 | 0.00 | 80 | 1000.9 |
| 20260505115651 | 58 | 223 | 9.6 | 18.2 | 0.00 | 0.00 | 0.00 | 83 | 1000.9 |